Погода в Белом Яре

Россия / Ульяновская область     53°58′56″N   48°54′00″E
темп.,
°C
ветер,
м/с
пор.,
м/с
влажн.,
%
обл.,
%
осадки,
мм/ч
давл.,
гПа
погр.,
м
14 июня, пн
пн1401:00+15юв229194 0.1 101419
04:00+15ю1189100 0.1 101411
07:00+17юв118293 0.0 101549
10:00+21св117099 0.4 1015345
13:00+23ссз1265100 0.1 1015636
16:00+24сз556666 1.1 1015592
19:00+19ссз4777100 0.3 1015157
22:00+17ссз2387100 0.6 101543
15 июня, вт
вт1501:00+17ссз2287100 0.1 101427
04:00+16ссз1188100 0.2 101512
07:00+17всв358693 0.0 1014110
10:00+19св347997 0.0 1015320
13:00+22всв4572100 0.0 1014614
16:00+24в576997 0.5 1012694
19:00+22всв58785 0.1 1011239
22:00+20всв51084100 0.1 1009153
16 июня, ср
ср1601:00+18всв4684100 0.0 1008102
04:00+17в348197 0.0 100750
07:00+18вюв3583100 0.1 1007126
10:00+20ю5781100 0.1 1007318
13:00+22ю5772100 0.0 1007649
16:00+23ююз67715 0.1 1007629
19:00+21ююз57835 0.4 1006241
22:00+19з3387100 0.6 100734
17 июня, чт
чт1701:00+16ссз915936 0.4 1009405
04:00+16ссз7139535 0.4 1011418
07:00+16ссз813850 0.0 1014589
10:00+18с711573 0.0 1015962
13:00+20ссз810490 0.0 10161261
16:00+20ссз810523 0.0 10171437
19:00+19ссз69631 0.0 1018455
22:00+15ссз46766 0.0 102083
18 июня, пт
пт1801:00+14ссз46790 0.0 102077
04:00+12ссз58821 0.0 1022148
07:00+15ссз59740 0.0 1023289
10:00+18с57580 0.0 1023723
13:00+20с57500 0.0 10241320
16:00+21с45514 0.0 10241247
19:00+20сз46650 0.0 1024233
22:00+16сз33717 0.0 102525